RH
62 52 44 40 39 39 36 38 37 34 37 40 41 40 47 52 54 54 50 56 57 53 48 46 39 39 35 38 38 43 42 40 38 36 35 33 30 31 30 30 32 32 31
46 41 40 43 40 44 44 43 39 39 38 39 47 53 56 60 71 68 69 65 61 53 54 53 45 44 37 41 42 47 47 42 40 40 41 38 33 31 30 29 29 34 36
49 50 51 48 49 49 51 52 50 47 46 46 56 66 74 94 89 76 72 70 64 62 62 55 46 48 52 49 47 53 56 55 54 51 48 41 38 35 32 32 30 31 33
63 61 59 64 56 57 56 55 60 68 68 80 83 85 84 90 86 79 78 72 75 72 67 61 55 53 48 55 56 54 57 56 52 63 60 51 44 39 38 37 34 35 36
64 65 64 65 64 61 64 65 66 79 90 96 100 99 100 100 95 96 94 83 80 71 72 76 65 63 63 65 74 73 59 54 51 56 59 58 51 46 43 44 46 44 40
67 66 69 67 69 81 70 62 72 79 98 100 94 97 93 98 98 85 82 79 79 85 83 94 78 80 79 90 75 75 69 63 64 54 52 53 52 52 50 48 48 48 48
66 66 86 96 80 81 93 83 71 79 97 96 100 90 91 96 92 82 90 97 96 95 100 97 94 92 90 100 98 97 76 84 67 64 68 62 55 53 49 51 53 49 46
83 78 81 69 73 76 92 92 85 100 99 98 95 91 92 90 92 82 86 93 100 99 100 100 100 100 100 100 94 97 100 100 100 87 81 87 77 67 61 52 54 56 59
66 71 85 95 94 94 92 97 96 99 95 99 93 96 92 96 97 98 100 100 100 100 100 100 100 100 100 100 100 100 100 100 93 87 98 88 86 74 66 57 58 61 56
69 64 79 99 90 73 79 88 95 100 98 92 99 100 100 100 100 100 100 100 100 100 100 100 100 100 100 100 99 99 98 93 100 100 92 90 85 77 68 68 66 62 62
82 77 71 74 74 88 100 100 100 100 100 100 100 100 100 100 100 100 100 100 100 100 100 100 100 100 100 100 100 98 100 100 100 100 90 71 81 83 77 72 70 70 60
75 89 89 70 77 84 96 100 97 97 100 100 100 100 100 100 100 100 100 100 100 100 100 100 100 100 100 100 100 100 100 100 100 100 96 88 98 100 100 76 80 66 66
87 96 99 99 92 82 76 79 76 73 65 68 70 92 95 92 100 100 96 100 100 100 100 100 100 100 100 100 100 100 100 100 94 97 100 100 100 100 89 70 67 64 63
85 73 61 50 50 53 53 51 57 70 76 79 77 82 93 100 100 100 100 100 100 100 100 100 100 100 100 100 100 100 98 100 100 100 100 85 100 100 100 96 90 81 66
44 51 46 43 42 41 42 41 50 59 70 83 85 84 100 100 100 100 100 100 100 100 100 100 100 100 98 100 99 100 100 100 100 100 94 65 97 77 73 72 62 69 69
28 23 22 26 27 29 29 34 41 55 64 69 78 92 100 100 100 100 100 100 100 100 100 97 100 98 84 100 100 100 100 100 85 98 95 90 95 72 64 62 57 51 60
26 31 31 26 22 25 28 29 30 36 42 52 61 77 92 100 100 100 100 100 100 100 100 100 100 87 88 100 87 84 97 100 100 100 100 82 81 69 61 55 51 58 52
34 31 24 17 12 11 15 20 22 28 34 39 47 56 77 92 100 100 100 100 100 100 100 100 100 100 100 91 84 100 94 100 99 87 84 80 71 79 54 50 59 55 52
28 21 14 11 8 9 10 13 16 22 25 34 44 52 54 68 81 90 97 100 100 100 100 100 100 100 83 82 80 95 99 100 100 93 83 71 54 54 54 66 56 52 52
24 20 11 6 6 8 7 8 12 14 18 33 40 49 57 63 67 73 78 83 100 100 100 100 100 100 99 100 100 100 100 100 81 74 62 52 54 50 52 50 48 46 46
25 18 12 6 6 7 7 7 9 14 21 26 28 39 60 76 85 89 83 74 75 88 100 100 100 100 100 100 100 98 81 63 59 52 55 50 50 51 45 42 42 49 46
33 26 15 8 6 5 5 6 9 13 18 23 30 40 69 97 100 99 92 87 84 87 98 100 100 100 100 82 61 63 62 57 55 57 51 56 48 44 43 48 44 44 43
39 34 28 17 11 12 13 11 10 10 15 24 31 48 86 100 100 100 99 91 86 79 83 91 86 80 82 77 63 58 64 65 51 46 46 44 40 41 43 43 43 40 38
49 42 35 29 27 20 21 23 25 25 31 41 54 80 100 100 98 100 98 94 95 85 81 80 80 73 79 86 78 63 54 51 37 34 37 40 42 45 42 36 35 30 22
60 54 46 40 38 37 56 62 63 68 78 84 92 97 97 98 97 94 93 92 92 92 94 90 86 81 74 67 60 49 42 37 36 39 40 40 37 39 37 23 14 9 7
60 62 63 56 50 50 56 57 59 63 73 75 73 76 78 82 80 79 81 87 87 89 92 88 76 67 56 44 39 37 37 37 37 36 32 30 27 24 23 8 6 5 7
Wind_Speed
70 71 72 74 73 72 73 72 73 70 68 67 67 70 69 69 69 68 68 68 66 64 65 66 59 54 51 50 48 49 50 48 47 49 47 47 45 48 48 48 49 50 49
75 76 75 74 73 73 72 72 71 69 70 70 69 71 71 70 70 70 70 67 67 64 65 63 59 57 55 55 53 54 52 50 50 50 49 47 44 43 46 45 46 48 49
76 76 75 76 75 75 72 72 72 73 72 72 71 72 73 72 72 69 68 67 65 67 64 66 61 57 59 59 59 57 56 55 55 52 49 47 46 44 42 43 44 44 46
78 79 79 79 77 76 75 75 74 75 77 76 75 74 75 71 70 68 65 69 70 71 69 66 63 60 60 61 63 61 57 56 55 53 52 49 47 44 44 44 43 42 40
78 79 78 77 79 79 78 78 78 77 77 77 76 74 71 69 70 69 72 72 72 72 71 69 67 64 64 62 65 65 62 60 58 54 51 51 51 48 47 43 41 41 40
82 83 82 82 81 82 83 82 81 80 79 80 78 74 72 71 71 73 72 73 73 73 73 71 70 67 68 65 70 68 66 63 61 59 57 54 51 50 49 45 43 41 40
87 86 85 85 86 85 85 85 87 85 82 81 79 79 77 78 78 76 72 72 73 72 70 71 71 68 71 69 67 66 67 65 66 64 60 56 55 54 54 51 47 45 42
89 89 90 94 93 91 89 90 90 85 81 81 81 81 81 79 79 77 75 75 74 73 69 70 70 73 72 71 70 65 66 64 63 68 65 60 59 57 57 56 54 51 49
92 91 90 91 91 88 90 91 90 88 88 86 86 85 82 81 81 78 75 75 74 73 72 73 75 76 74 76 71 71 65 65 70 68 67 66 64 60 59 58 57 57 55
93 92 91 89 91 91 91 93 92 91 89 88 86 83 81 79 78 75 74 73 74 75 76 78 75 76 77 74 74 71 71 74 71 72 74 69 68 65 64 62 61 61 61
98 99 96 94 94 95 94 95 94 92 90 86 86 86 85 80 78 78 77 77 78 77 76 78 78 82 82 79 76 80 78 74 79 76 78 76 73 72 73 71 68 66 64
99 101 104 104 102 100 100 102 102 101 100 99 97 98 96 95 92 91 91 84 79 78 80 81 82 80 79 78 76 77 81 82 81 84 80 79 79 81 79 78 73 71 69
102 104 107 109 112 114 113 110 110 109 110 108 104 99 96 94 90 87 83 77 79 79 80 81 81 82 81 82 83 85 84 86 89 86 83 84 83 86 86 83 78 76 75
109 114 119 119 116 115 114 113 112 108 107 103 100 96 95 92 88 82 76 78 72 72 71 81 81 84 85 86 87 92 92 89 90 90 89 86 88 89 89 89 88 83 79
109 110 112 113 114 115 116 114 113 112 109 104 101 96 92 87 85 81 72 78 76 75 76 91 84 85 85 91 91 93 93 94 94 93 92 91 85 90 93 91 91 87 85
103 103 104 105 107 110 112 112 112 111 112 110 104 99 93 89 87 85 83 78 77 70 75 84 89 88 87 91 93 93 97 97 97 95 95 95 97 98 98 96 91 86 80
91 89 91 98 102 103 105 107 109 110 109 109 106 103 99 93 89 84 85 76 62 76 85 64 85 94 98 92 99 93 95 101 100 100 101 100 100 102 101 92 91 90 84
83 83 94 97 94 94 99 104 106 104 104 105 104 101 96 93 94 91 83 84 80 81 86 97 102 103 93 97 100 100 104 100 104 103 106 109 103 104 100 97 94 87 79
75 81 86 88 84 83 80 83 89 95 99 98 101 100 96 91 86 82 80 78 81 84 91 98 100 102 106 107 107 108 106 108 110 109 111 111 107 103 98 99 89 85 87
60 65 68 67 65 61 59 60 65 72 79 87 91 94 95 92 88 85 80 74 88 83 90 95 95 105 111 114 113 108 110 115 113 111 111 106 101 98 100 91 87 87 88
58 59 55 54 54 52 52 53 54 59 67 75 77 78 84 87 87 82 83 82 80 82 89 99 102 102 108 110 112 110 109 111 111 111 106 101 97 92 88 88 87 88 88
54 53 54 47 41 39 38 40 45 50 53 55 59 67 71 73 76 77 78 81 81 82 85 90 96 99 104 109 108 110 108 107 104 103 90 92 90 90 91 91 90 93 94
46 41 42 40 31 26 23 23 26 32 39 43 46 49 51 57 64 69 71 76 80 83 86 91 97 100 103 106 107 105 102 93 91 90 88 93 88 90 94 95 95 93 92
38 39 37 37 35 29 23 19 16 14 14 19 27 34 40 47 55 57 62 68 74 80 85 90 93 96 96 92 90 90 91 93 91 88 85 93 91 94 96 95 94 91 88
37 37 35 33 30 27 30 30 23 18 13 9 14 22 31 39 45 49 54 59 63 67 71 71 72 77 82 86 89 93 92 92 94 93 88 93 92 94 99 94 88 80 77
35 35 34 33 30 28 25 23 19 15 13 10 9 12 16 20 26 31 37 43 50 56 63 70 76 81 85 88 90 91 93 94 95 96 90 92 90 88 94 85 76 70 67
Wind_Direction
280 281 283 284 285 286 287 289 290 290 292 294 295 296 295 296 296 297 298 299 299 303 309 312 311 306 310 316 312 310 307 301 301 303 302 300 295 289 288 285 281 276 274
280 281 283 284 286 288 288 288 290 291 292 294 295 294 295 294 294 295 296 298 300 302 306 308 309 306 306 313 317 314 310 306 307 308 305 305 301 296 287 286 282 279 276
281 282 283 283 285 287 288 289 291 292 293 292 293 293 292 291 291 292 293 295 295 299 302 308 309 308 303 307 312 313 309 308 308 307 307 306 307 304 297 289 283 279 276
282 283 284 285 285 286 287 289 290 291 293 292 291 290 292 291 289 290 290 295 295 300 302 304 305 306 306 305 306 311 309 306 308 307 306 304 305 306 303 300 293 286 281
284 285 284 284 286 287 288 289 289 290 289 288 288 288 287 286 289 290 292 294 295 298 299 299 301 299 301 302 304 305 305 307 307 305 303 302 302 304 305 301 298 295 291
284 285 285 285 286 287 288 288 289 288 286 286 287 287 285 285 286 289 291 293 294 295 296 296 296 295 296 297 303 303 304 304 308 307 306 302 301 302 303 300 297 297 294
285 285 285 287 287 286 285 284 287 287 285 285 285 286 286 285 287 289 288 290 291 293 293 295 294 294 296 296 298 300 303 301 305 309 306 305 302 301 303 301 299 298 297
282 284 284 285 284 285 284 285 286 283 282 283 284 285 286 287 286 290 291 290 288 289 290 291 292 293 296 296 299 298 299 300 301 304 304 303 300 299 299 300 297 296 294
282 283 282 282 282 282 284 284 283 282 283 283 284 286 285 285 287 286 286 287 287 286 286 288 287 289 291 292 293 296 291 295 297 300 299 300 298 297 297 297 296 294 295
283 283 281 280 282 283 284 284 283 283 284 283 283 282 283 282 282 282 282 282 283 284 286 287 286 287 289 289 291 292 290 296 294 295 297 298 296 295 296 296 294 293 293
284 284 283 282 281 281 280 279 279 278 278 278 278 279 280 278 278 278 280 281 282 282 282 283 287 289 289 290 289 289 292 293 293 294 294 295 295 294 295 297 294 291 292
282 283 283 284 283 282 280 278 278 278 278 278 278 279 279 279 280 280 282 280 278 280 282 284 286 285 285 287 287 286 288 289 291 291 294 294 294 293 293 292 290 291 290
282 280 280 281 282 281 279 277 276 276 277 277 277 277 277 277 277 277 279 275 276 279 281 282 282 282 283 284 284 284 285 286 288 290 289 290 290 291 292 292 292 291 290
279 280 280 283 283 281 280 279 277 275 275 273 273 272 273 274 275 274 274 276 277 282 282 281 278 279 277 278 280 282 284 286 285 286 287 288 289 290 292 291 292 291 290
286 284 282 281 280 278 277 275 274 272 270 269 270 269 268 268 268 268 268 271 281 278 276 279 280 278 280 280 282 283 283 284 284 285 286 289 286 289 290 291 289 289 286
284 282 281 280 278 276 274 272 270 268 268 267 264 263 263 263 263 266 269 271 276 286 271 273 273 278 279 278 281 279 282 284 288 289 289 289 287 290 291 291 289 289 288
286 284 280 275 272 270 269 269 268 265 263 263 263 261 259 259 260 261 264 267 270 273 272 261 275 276 279 277 278 278 280 287 285 285 285 287 286 288 289 288 289 289 288
285 282 281 283 286 282 273 268 264 262 262 260 259 259 259 258 257 258 262 263 263 257 257 262 268 271 272 276 277 279 282 282 282 284 284 285 285 285 287 290 291 288 285
285 286 288 287 284 279 274 266 262 260 260 259 257 256 256 256 257 259 260 259 257 258 258 256 261 268 272 274 278 282 280 281 283 283 283 285 287 287 287 289 288 285 284
297 300 303 295 289 280 274 268 264 260 256 255 255 254 254 253 255 256 256 254 255 255 253 258 265 268 271 274 277 279 279 282 283 284 285 290 289 288 289 288 285 285 283
314 316 313 301 291 282 277 271 263 258 256 256 256 254 253 253 253 255 257 257 259 259 260 260 267 270 271 273 277 278 278 280 283 285 289 288 288 286 285 284 283 284 285
320 325 327 316 298 291 283 276 269 264 261 261 259 255 252 250 251 255 256 256 257 260 263 265 268 271 273 274 277 280 282 283 285 285 287 286 285 284 285 285 286 286 288
327 331 336 335 328 323 312 298 280 268 260 256 256 253 250 250 252 257 260 259 259 261 265 266 268 273 276 277 280 284 286 284 283 283 284 284 287 287 288 289 289 289 290
328 334 341 351 0 359 359 352 342 307 276 266 256 250 247 249 256 260 261 262 263 265 269 270 272 275 280 281 282 282 282 283 286 289 292 291 292 293 291 290 289 289 288
330 336 344 352 359 15 29 29 27 22 6 315 277 268 266 268 271 270 270 271 272 274 276 278 279 281 282 281 282 284 287 292 295 295 295 294 294 294 292 290 288 288 288
324 329 335 340 349 358 7 12 15 17 24 7 346 326 309 298 292 288 287 286 285 285 284 283 283 283 284 286 290 293 295 297 297 296 296 294 293 292 292 289 289 290 289